User: anonymous   Login
Location: Geroldsau
(48.7259°N, 8.2466°E)
Time: 01:55:57
(UTC+00:00)
Language:

Cosmos 1943 - Orbit

View from above orbital plane
View from above orbital plane
View from above satellite
View from above satellite

Ground track
Ground track

The orbit data is extracted from the following two-line orbital elements,

1 19119U 88039A   21269.89502910  .00000120  00000-0  86440-4 0  9992
2 19119  71.0039  59.8117 0012398 210.6755 263.3061 14.15184344722909
Epoch (UTC): 26 September 2021 21:28:50
Eccentricity: 0.0012398
inclination: 71.0039°
perigee height: 833 km
apogee height: 850 km
right ascension of ascending node: 59.8117°
argument of perigee: 210.6755°
revolutions per day: 14.15184344
mean anomaly at epoch: 263.3061°
orbit number at epoch: 72290

The dashed part of the orbit path shows where the satellite is in the earth's shadow,  

DLR